Regional Weather Roundup
Issued by NWS Sterling, VA

Home | Current Version | Previous Version | Graphics & Text | Print | Product List | Glossary On
Versions: 1 2 3 4 5 6 7 8 9 10 11 12 13 14 15 16 17 18 19 20 21 22 23 24 25 26 27 28 29 30 31 32 33 34 35 36 37 38 39 40 41 42 43 44 45 46 47 48 49 50
177
ASUS41 KLWX 200710
RWRLWX

REGIONAL WEATHER ROUNDUP
NATIONAL WEATHER SERVICE BALTIMORE MD/WASHINGTON DC
200 AM EST MON FEB 20 2017

Note: "FAIR" indicates few or no clouds below 12,000 feet
with no significant weather and/or obstructions to visibility.
 TC=TEMPERATURE CELSIUS

 * =Non NWS site. Station does not report precipitation (e.g. rain,
    snow, etc.), thunder, or fog.

DCZ001-MDZ009-015-VAZ040>042-051-053>054-200800-
WASHINGTON METRO

CITY           SKY/WX    TMP DP  RH WIND       PRES   REMARKS
WASHINGTON NAT MOCLDY    49  42  77 W6        30.08R
DULLES         CLEAR     50  41  71 NW8       30.08S
ANDREWS AFB    CLEAR     52  41  68 W8        30.07R
FT BELVOIR     CLEAR     44  39  81 CALM      30.08R
QUANTICO       CLEAR     45  42  89 NW3       30.11R
COLLEGE PARK*  CLEAR     54  41  62 NW6       30.07R
LEESBURG*      CLEAR     52  45  76 MISG      30.10R
MANASSAS*      CLEAR     41  39  93 CALM      30.09S
GAITHERSBURG*  CLEAR     52  39  62 NW12      30.11R

$$

MDZ006>007-011-014-200800-
BALTIMORE METRO

CITY           SKY/WX    TMP DP  RH WIND       PRES   REMARKS
BWI AIRPORT    PTCLDY    46  41  82 W6        30.05R
MD SCIENCE CTR   N/A     55  39  54 MISG      30.06R
ANNAPOLIS      CLEAR     47  42  83 CALM      30.05R
FORT MEADE*    CLEAR     39  36  87 CALM      30.09R

$$

MDZ012-015-019>023-200800-
MARYLAND EASTERN SHORE

CITY           SKY/WX    TMP DP  RH WIND       PRES   REMARKS
OCEAN CITY     CLEAR     53  40  61 NW9       30.03R
SALISBURY      CLEAR     52  42  69 NW8       30.04R
BAY BRIDGE AP* CLEAR     50  43  76 W6        30.06R
CAMBRIDGE*     CLEAR     48  41  76 W3        30.06R
EASTON*        CLEAR     51  41  67 NW3       30.09R

$$

MDZ017>025-200800-
SOUTHERN MARYLAND

CITY           SKY/WX    TMP DP  RH WIND       PRES   REMARKS
PATUXENT RIVER CLEAR     51  43  74 NW9       30.07R
ST INIGOES     CLEAR     51  41  68 W6        30.07R
LEONARDTOWN*   CLEAR     52  41  66 W7        30.09S

$$

MDZ003>005-200800-
NORTH CENTRAL MARYLAND

CITY           SKY/WX    TMP DP  RH WIND       PRES   REMARKS
FREDERICK*     CLEAR     46  43  87 CALM      30.11R
HAGERSTOWN APT CLEAR     51  41  68 CALM      30.09R
WESTMINSTER*   CLEAR     50  41  71 W5        30.07R

$$

MDZ501>502-200800-
WESTERN MARYLAND

CITY           SKY/WX    TMP DP  RH WIND       PRES   REMARKS
OAKLAND*       CLOUDY    41  41 100 W9        30.15S FOG
CUMBERLAND*    CLEAR     54  41  62 NW8       30.17R

$$

VAZ025>031-200800-
SHENANDOAH VALLEY

CITY           SKY/WX    TMP DP  RH WIND       PRES   REMARKS
WINCHESTER*    CLEAR     50  41  71 W10       30.11R
FRONT ROYAL*   CLEAR     48  37  66 S5        30.11R
LURAY*         CLEAR     43  37  81 SW5       30.12S
NEW MARKET*    CLEAR     35  32  88 CALM      30.12S
STAUNTON*      PTCLDY    32  30  94 CALM      30.15R
WAYNESBORO*    CLEAR     47  38  71 CALM      30.13R

$$

WVZ021-048>050-054>055-200800-
EASTERN WEST VIRGINIA PANHANDLE

CITY           SKY/WX    TMP DP  RH WIND       PRES   REMARKS
MARTINSBURG    CLEAR     53  41  63 NW13      30.10R
PETERSBURG*    CLEAR     37  36  96 CALM      30.17R FOG

$$

VAZ036>039-050-200800-
CENTRAL FOOTHILLS

CITY           SKY/WX    TMP DP  RH WIND       PRES   REMARKS
CHARLOTTESVILL CLEAR     52  34  50 SE7       30.09R
CULPEPER*      CLEAR     38  34  85 CALM      30.10S
ORANGE*        CLEAR     37  32  81 CALM      30.10R
GORDONSVILLE*  CLEAR     37  34  90 CALM      30.08S
WARRENTON*     CLEAR     38  32  80 CALM      30.09R

$$

VAZ055>057-200800-
NORTH AND CENTRAL PIEDMONT

CITY           SKY/WX    TMP DP  RH WIND       PRES   REMARKS
FREDERICKSBRG* CLEAR     43  38  82 CALM      30.09S
STAFFORD*      CLEAR     40  37  86 CALM      30.13S

$$

NCZ024-NYZ072-PAZ021-071-VAZ022-071-200800-
OTHER REGIONAL OBSERVATIONS

CITY           SKY/WX    TMP DP  RH WIND       PRES   REMARKS
NEW YORK CITY  PTCLDY    50  33  52 W8        30.04R
PHILADELPHIA   CLEAR     50  31  48 N7        30.05R
PITTSBURGH     CLEAR     42  40  92 CALM      30.15S
ROANOKE        CLEAR     44  38  79 CALM      30.17R
RICHMOND       CLEAR     53  39  59 N8        30.09R
RALEIGH        CLEAR     51  40  65 CALM      30.09F

$$

ANZ530>537-200800-
MARINE OBSERVATIONS

STATION/POSITION TIME  TEMP    WIND        PRES
                       AIR SEA DIR/SP/G
                 (UTC) (F)     (DEG/KT/KT) (MB)
THOMAS PT LIGHT  0700   55 41  290/ 11/ 11   N/A
BALT KEY BRIDGE  0648   53     250/  5/  6 1017.6R
COVE POINT       0648   55     320/ 12/ 14 1018.6R
LEWISETTA        0648   55 45  320/ 10/ 12 1017.9R
SOLOMONS ISLAND  0642   52 42  320/  5/  7   N/A
PINEY POINT      0648          320/ 13/ 13   N/A

$$





USA.gov is the U.S. government's official web portal to all federal, state and local government web resources and services.